RH
25 34 46 53 58 66 71 70 69 67 65 60 49 40 37 37 36 36 36 38 44 50 57 66 76 84 90 96 99 99 99 100 100 100 100 100 100 100 100 100 100 100 100 100 100 100 101 100 100 100 100 101 99 99 101 91 72 62 63 66 69 71 70 69 68 67 67 69 70 71 71 68 67 67 64 59 53 48 45 44 43 43 41 41 40
11 14 25 36 46 61 72 75 74 72 71 73 69 57 46 41 39 38 38 39 43 50 58 65 74 81 85 90 96 99 99 99 100 100 100 100 100 100 100 100 100 100 100 100 100 100 100 100 100 100 100 101 100 99 101 98 84 73 73 74 71 66 63 63 63 62 61 63 64 65 65 64 62 63 64 64 61 55 51 49 47 46 46 44 43
11 9 11 17 26 39 54 67 75 75 75 79 80 72 63 55 48 42 39 40 42 48 56 64 71 78 83 87 91 96 100 100 100 100 100 100 100 100 100 100 100 100 100 100 100 100 100 100 100 101 100 100 100 100 100 101 97 90 87 89 85 76 68 64 61 60 59 60 61 62 62 60 61 62 64 66 65 60 55 52 49 48 49 48 47
15 15 11 10 13 18 27 43 56 67 79 87 82 77 76 71 62 53 45 41 41 44 52 60 67 73 79 84 87 91 97 100 100 100 100 100 100 100 100 100 100 101 99 98 99 100 101 101 100 100 100 100 100 100 100 100 100 99 98 98 97 90 81 75 70 68 68 67 65 63 63 62 63 63 62 62 60 58 55 51 49 48 48 49 49
23 23 20 17 17 15 16 21 30 47 71 83 80 78 80 80 75 67 56 49 43 42 47 56 64 70 75 80 84 87 92 97 100 100 100 100 101 100 100 100 100 100 100 98 97 98 98 99 100 100 100 100 100 100 100 99 99 101 101 100 100 99 95 89 84 82 81 79 74 70 68 67 65 62 60 59 58 56 54 51 49 49 49 49 49
31 30 28 27 29 28 24 21 21 31 48 61 68 74 80 84 83 76 68 62 53 46 47 51 60 68 73 77 81 84 88 92 97 100 100 100 101 100 100 100 100 100 101 100 98 97 96 95 96 98 99 100 99 98 97 97 97 97 98 98 98 99 99 97 94 92 89 87 84 80 73 66 63 61 60 60 59 57 56 53 51 50 50 50 50
41 37 34 34 42 48 43 38 38 40 44 50 57 66 73 79 81 79 76 72 62 54 50 51 55 63 70 76 80 82 84 87 92 97 100 100 100 101 100 100 101 100 100 100 100 100 98 96 95 95 95 95 95 95 95 94 95 95 94 94 95 96 97 96 95 93 90 86 81 74 66 61 60 61 61 60 59 58 56 55 53 51 52 52 52
52 51 47 44 51 61 61 58 60 61 63 63 63 67 72 73 74 78 82 81 73 64 56 54 56 59 66 73 78 81 82 84 87 92 98 100 100 100 101 100 100 100 99 99 100 100 100 100 99 97 95 94 91 91 92 91 91 92 91 91 92 93 92 89 85 81 76 71 67 62 60 61 61 62 62 61 59 59 57 56 56 55 54 54 53
62 63 60 52 54 66 73 75 75 74 76 78 78 79 80 78 75 76 81 88 87 75 62 59 60 60 63 68 74 80 82 82 85 89 95 100 100 100 101 100 100 100 99 99 99 100 100 100 100 100 99 98 96 94 94 93 92 91 90 89 89 88 86 82 77 73 69 66 65 66 66 66 65 64 64 64 63 62 61 60 60 59 58 58 57
68 65 60 55 60 73 82 84 83 80 80 81 82 85 87 86 84 80 79 87 89 79 66 61 62 64 66 66 69 76 80 81 83 87 94 100 100 100 100 100 101 101 100 100 99 99 101 100 100 101 100 100 100 99 98 98 97 96 94 92 91 88 87 85 83 80 78 77 76 75 74 73 72 70 69 69 69 69 67 65 64 64 63 63 63
70 67 63 61 70 85 91 90 87 83 81 82 82 86 90 91 92 89 83 82 80 73 66 63 63 66 69 69 68 72 77 80 82 85 92 99 100 100 100 99 100 101 100 100 100 100 100 100 100 100 100 100 100 100 100 100 99 98 98 97 96 94 92 90 90 88 87 86 85 83 83 82 81 81 80 78 76 76 75 74 73 72 71 70 70
70 70 67 65 77 96 100 96 93 87 86 90 88 87 89 91 92 92 89 84 77 69 64 62 64 67 71 72 71 72 75 79 83 86 92 98 100 100 100 99 99 100 100 100 100 100 100 100 100 100 100 100 100 100 100 100 100 100 99 99 99 99 98 96 95 94 93 92 92 90 89 89 89 90 89 88 86 85 83 81 81 81 80 80 79
68 67 63 61 77 97 101 100 99 92 90 92 91 89 90 92 94 94 93 89 80 68 63 62 65 70 74 74 74 74 74 78 84 89 92 97 100 100 100 100 99 100 101 100 100 101 100 100 100 100 100 100 100 100 100 100 100 100 100 100 100 100 100 100 99 99 98 97 98 96 94 94 94 94 94 94 94 93 91 90 89 90 91 90 89
68 65 60 64 82 98 101 100 96 88 84 85 88 91 95 98 99 98 98 94 81 68 63 64 67 73 77 78 77 77 77 79 87 93 95 98 101 101 99 100 100 100 100 100 100 100 100 100 100 100 100 100 100 100 100 100 100 100 100 100 101 100 100 100 100 100 100 100 100 99 98 98 98 97 98 99 100 98 98 98 97 97 98 97 95
65 65 67 77 95 103 100 98 94 89 88 90 92 94 97 100 101 100 101 96 80 67 65 67 70 75 79 81 82 82 82 85 93 98 99 99 100 100 99 98 100 101 100 100 101 100 100 100 100 100 100 100 100 100 100 100 100 100 101 100 100 100 100 101 100 100 100 100 100 100 100 100 100 100 100 100 100 100 100 100 100 100 100 100 98
66 68 75 88 100 102 100 101 99 97 98 99 99 99 99 101 101 101 101 92 77 68 68 71 75 80 82 84 87 89 89 92 99 101 101 100 100 100 100 97 98 100 100 100 100 100 100 100 100 101 100 100 101 100 100 101 100 100 100 100 100 100 100 101 101 100 100 100 100 101 100 100 100 100 101 100 100 100 100 100 101 100 101 101 99
68 70 81 92 97 100 102 102 100 101 102 100 100 101 100 100 101 100 96 86 74 69 71 76 82 85 86 88 92 96 95 96 101 102 100 100 100 100 101 99 97 98 100 101 101 100 101 100 100 100 100 100 101 100 100 101 100 101 101 100 100 100 100 101 100 100 101 100 100 100 99 100 100 99 99 100 99 99 100 100 100 100 100 100 99
74 80 91 97 99 100 101 100 101 102 97 92 95 100 100 101 101 98 91 80 71 71 78 86 88 88 91 94 96 99 99 98 101 102 100 100 101 100 100 100 99 99 99 101 101 100 100 101 100 101 101 100 100 101 100 99 98 98 99 100 101 100 100 101 101 100 100 100 99 99 98 98 99 99 100 100 99 99 100 99 99 100 100 99 98
90 97 99 99 100 100 100 101 100 95 88 89 97 102 101 100 99 93 84 75 70 76 88 94 92 91 95 96 95 98 100 100 100 101 101 101 100 100 100 100 100 100 100 100 100 101 100 100 100 100 100 101 100 101 100 98 97 98 97 97 99 100 99 100 100 100 100 100 100 100 99 99 99 99 100 99 99 100 100 100 100 101 101 100 100
100 99 94 95 99 101 101 99 93 88 92 98 100 101 99 96 91 84 75 71 75 86 95 96 93 92 93 93 92 94 99 101 101 101 101 100 100 101 101 101 100 100 100 100 101 101 100 100 101 100 100 101 101 101 101 100 99 98 97 97 98 98 99 100 101 101 100 100 100 100 100 100 100 100 100 100 100 100 100 101 101 100 101 101 100
101 95 88 91 98 101 102 100 95 95 101 102 99 98 93 85 80 75 71 76 86 94 98 98 95 93 91 91 91 91 94 96 96 94 94 97 101 101 100 100 101 100 100 100 100 102 101 100 100 100 100 101 101 100 100 101 101 98 95 94 97 99 100 100 101 101 100 100 101 101 101 100 100 100 100 99 99 99 100 100 100 100 101 100 99
96 91 90 94 100 101 101 99 97 95 94 91 89 86 79 75 76 77 79 87 95 99 99 99 97 93 90 90 92 91 89 86 85 85 84 89 99 103 101 100 101 100 101 101 101 101 100 96 93 95 98 101 102 102 100 99 100 98 94 95 98 101 101 101 101 101 101 101 101 100 100 100 100 101 101 100 100 99 100 101 100 100 101 100 99
90 93 97 99 97 94 91 92 92 89 84 80 78 75 74 79 83 85 89 96 99 100 100 99 99 96 91 90 94 97 92 83 82 86 81 78 88 100 101 100 100 101 101 101 101 100 96 91 87 85 85 85 89 96 101 102 101 100 98 98 100 100 101 101 101 101 101 102 102 101 101 101 100 100 100 100 100 100 100 101 100 100 101 100 100
98 98 95 90 85 83 85 89 90 87 83 79 76 77 82 87 89 90 96 100 101 101 101 101 101 99 95 93 95 100 99 91 91 93 82 69 77 96 102 100 100 100 97 97 99 95 91 89 88 86 87 87 87 87 88 89 94 100 101 99 98 100 101 101 100 99 98 97 97 97 98 98 99 101 101 100 101 101 100 101 100 100 100 100 100
96 91 85 82 82 85 89 90 89 88 85 81 82 87 91 93 93 94 97 100 101 101 102 102 102 101 99 99 98 100 102 100 99 94 79 65 75 95 101 99 101 100 91 89 97 99 97 97 94 89 91 95 92 80 65 61 76 95 102 101 99 99 100 100 99 99 97 95 93 90 88 87 87 88 90 92 94 95 97 99 100 101 101 101 101
84 82 82 83 85 87 90 92 94 95 90 85 90 97 98 97 97 96 98 100 101 101 102 103 104 103 100 100 100 100 102 103 99 89 72 64 80 101 103 99 102 100 86 81 91 99 100 96 84 71 65 67 69 66 57 56 71 87 92 95 100 101 101 101 101 100 99 98 97 94 91 90 87 85 84 84 85 85 86 86 89 93 96 97 98
84 84 84 86 88 89 91 95 99 100 94 91 96 102 100 99 99 99 101 102 102 101 102 103 104 103 100 99 99 99 101 102 99 90 75 67 80 98 98 90 89 86 74 68 73 78 76 70 59 50 46 44 46 49 48 49 56 61 61 68 79 86 89 93 96 98 100 100 101 101 100 99 98 96 94 93 92 91 89 86 83 82 82 83 86
88 88 87 89 91 92 95 99 100 100 98 97 100 101 98 98 101 101 101 103 103 103 103 102 102 102 102 101 99 99 101 101 99 98 92 81 78 86 86 78 74 71 65 61 61 60 57 53 48 45 43 41 41 42 42 41 42 42 42 45 49 53 57 62 68 75 80 84 89 94 98 99 100 101 102 102 100 100 100 98 95 92 88 86 86
92 92 91 92 94 95 97 100 100 99 98 98 99 100 99 100 102 99 95 97 102 104 101 99 99 99 100 101 101 101 101 99 96 98 99 94 89 90 91 88 82 76 74 74 73 68 62 58 53 49 46 43 42 43 42 40 40 40 41 41 41 40 41 43 47 54 60 66 71 77 82 86 89 92 95 96 97 98 97 95 94 92 89 86 83
94 95 95 97 99 100 100 99 98 98 98 98 98 97 95 97 101 100 94 92 98 102 99 96 97 97 96 96 98 99 99 98 98 99 100 100 99 99 99 100 96 89 89 93 91 80 69 61 55 51 48 46 46 46 46 44 43 42 41 41 41 41 40 41 43 48 54 61 68 75 81 85 88 89 89 89 89 90 90 89 88 87 85 84 83
100 100 100 101 102 104 103 101 99 99 100 100 99 96 93 92 93 96 96 94 96 98 99 98 99 99 97 96 98 99 97 95 97 100 100 100 100 100 100 100 99 97 97 97 91 79 67 59 56 55 53 51 51 52 53 53 50 46 42 40 40 40 41 43 45 47 50 55 62 69 78 85 91 95 96 96 95 94 94 94 94 94 92 90 87
103 100 100 102 103 104 104 103 102 102 101 101 99 99 99 96 91 90 92 96 98 98 98 100 101 100 100 100 100 100 100 98 97 100 102 101 100 99 97 98 100 102 99 91 82 74 66 59 58 62 65 64 60 61 63 63 60 53 45 41 41 42 42 44 46 47 49 51 54 59 65 71 78 84 88 91 93 94 94 93 91 90 88 86 83
97 92 97 102 102 103 104 104 103 101 101 101 101 101 102 103 100 94 90 92 96 95 95 98 101 100 100 101 99 99 102 101 98 97 97 98 95 88 84 90 95 92 86 79 75 73 69 63 61 67 74 73 66 64 68 70 68 62 55 50 51 52 52 52 52 52 53 54 54 57 61 67 72 77 80 82 83 84 84 83 81 80 80 80 81
88 86 93 100 102 103 104 104 102 101 101 104 104 103 103 103 104 103 97 94 93 91 90 93 95 95 97 99 100 101 101 100 99 94 90 92 91 84 83 88 82 69 65 71 74 75 74 71 67 71 76 76 71 68 69 73 74 72 67 63 63 65 66 66 65 64 64 64 64 65 67 70 75 79 82 83 84 85 85 84 82 83 84 85 85
82 81 88 96 102 103 102 101 101 100 101 103 104 104 103 102 104 105 103 101 99 95 93 94 94 92 93 94 97 99 99 99 101 97 92 93 91 84 82 82 70 58 61 69 68 66 68 69 67 68 70 72 72 70 68 70 72 72 70 69 68 68 71 75 77 77 75 73 72 72 74 76 79 82 84 87 89 90 91 91 91 90 90 90 90
80 80 82 88 97 101 102 102 101 100 100 101 103 105 105 104 104 104 103 103 105 102 98 98 99 97 94 92 92 92 90 90 89 87 87 86 77 64 60 62 59 58 63 65 61 60 62 63 63 65 66 66 67 66 66 67 68 68 69 70 69 68 70 74 79 82 82 80 79 77 77 80 82 83 85 88 90 92 93 93 93 92 90 89 88
83 85 86 89 95 99 100 101 101 101 102 102 103 106 105 104 105 105 102 102 105 106 103 101 101 100 95 89 83 78 73 71 69 68 70 68 59 50 51 57 59 59 59 59 58 58 60 60 61 62 63 64 64 64 65 67 68 69 71 71 71 72 73 73 75 78 80 81 81 79 78 81 84 85 87 88 88 89 90 89 88 86 85 83 81
86 91 94 97 100 102 102 101 99 99 101 103 104 105 104 104 104 104 103 102 103 104 105 104 103 101 95 86 77 68 64 62 60 59 60 57 51 51 57 60 59 58 56 56 56 57 58 59 61 61 62 63 64 64 65 66 68 70 71 71 71 74 76 76 76 76 77 79 81 81 80 80 82 84 86 86 86 85 85 83 82 79 78 76 74
88 93 97 100 102 102 103 102 99 97 98 101 103 102 101 101 102 102 103 104 102 102 104 104 104 104 100 91 79 68 62 61 59 57 57 55 53 55 58 58 57 58 57 56 56 57 58 58 59 61 62 62 62 63 64 65 66 67 68 69 70 73 77 79 79 79 78 80 83 84 84 83 83 83 84 84 83 82 81 78 77 74 70 65 58
91 94 98 100 101 100 98 99 100 99 97 97 101 102 101 101 100 100 102 103 102 103 104 103 103 104 105 101 90 76 64 60 58 56 54 53 54 55 56 57 59 61 61 60 60 60 61 61 61 61 61 61 61 61 61 63 65 67 68 71 73 76 79 81 82 82 82 84 85 86 86 85 84 83 83 80 79 77 75 71 67 61 54 46 40
95 99 101 102 103 102 99 97 99 101 100 98 98 101 103 102 100 100 100 101 102 104 104 103 102 102 102 103 100 90 74 63 59 57 55 54 56 58 59 61 64 65 65 66 66 65 66 65 64 63 62 61 60 60 61 64 67 70 74 76 78 80 82 82 82 83 83 84 85 85 85 85 84 81 78 74 70 66 60 53 47 42 37 34 32
100 103 103 103 103 103 102 100 100 103 105 103 100 102 104 103 102 101 100 99 101 102 103 103 103 102 100 101 103 101 90 75 64 60 58 57 58 61 64 67 68 69 69 71 72 72 73 71 69 68 66 64 63 64 64 67 69 73 77 79 80 81 82 82 82 83 83 83 83 82 81 80 78 71 64 57 52 47 42 37 35 33 33 33 32
102 101 101 101 101 102 103 104 103 102 102 101 101 102 103 103 102 102 102 101 100 100 101 102 101 101 101 100 101 103 100 89 75 67 64 63 62 63 68 73 74 73 74 76 77 78 79 78 75 73 70 68 66 66 67 68 71 74 77 79 80 80 80 80 81 81 81 80 79 77 74 70 62 53 45 39 36 35 34 33 33 33 32 32 32
100 100 101 101 101 103 104 104 103 101 100 100 101 101 102 103 102 102 103 103 101 100 101 101 100 100 101 100 99 101 102 99 88 76 70 69 66 66 71 76 77 77 78 80 82 82 83 83 81 79 75 71 68 67 68 69 72 76 78 79 79 79 78 79 79 79 78 75 72 68 63 56 47 39 35 33 33 34 33 33 33 33 32 33 33
100 102 103 102 102 104 105 103 101 101 100 100 100 99 100 102 102 101 103 103 101 100 100 100 100 100 100 100 100 100 101 102 97 87 77 73 71 71 74 77 79 80 82 84 85 86 86 86 86 83 79 74 71 69 70 73 76 79 80 80 79 79 78 79 79 77 72 66 60 55 49 43 38 35 34 34 34 34 33 33 33 33 33 34 35
102 103 103 103 104 105 103 101 100 100 100 101 100 99 99 100 101 103 104 103 102 101 101 100 100 101 100 100 101 100 100 102 102 97 89 81 77 77 80 83 83 84 86 87 89 89 90 90 90 88 84 79 74 72 74 77 80 82 82 80 79 80 79 79 78 76 68 58 49 43 39 37 36 35 35 35 34 33 33 34 34 34 35 36 38
103 102 103 104 105 103 101 101 102 102 101 101 101 100 100 100 100 102 104 103 102 101 101 100 101 101 100 100 101 100 100 101 101 102 99 92 84 82 84 86 87 88 89 91 93 93 92 92 93 92 89 84 78 76 78 82 83 83 81 79 78 78 76 74 71 66 59 49 41 37 35 35 35 35 35 35 34 33 34 35 35 36 38 40 43
101 101 103 105 104 103 103 106 107 105 102 101 101 101 101 101 100 100 101 102 102 101 100 101 101 101 100 101 101 101 100 100 100 101 102 100 94 88 85 86 88 90 91 93 95 96 94 94 95 95 93 88 83 81 82 85 85 83 80 78 76 74 72 67 59 51 44 39 37 36 36 35 35 35 35 35 35 34 35 36 38 40 44 47 49
100 101 104 104 103 104 106 109 109 106 102 101 101 100 100 101 101 100 100 101 101 101 100 100 100 100 100 101 101 100 101 101 100 100 101 102 101 98 94 91 90 90 91 94 98 98 97 96 96 98 97 92 87 84 85 86 86 82 79 76 74 71 66 57 47 39 37 36 36 37 37 36 35 36 35 35 36 37 38 40 43 46 50 53 55
99 103 103 101 102 104 105 107 107 105 102 101 101 100 101 101 101 101 100 100 100 100 100 100 100 100 100 100 100 100 100 100 100 100 100 100 101 102 101 99 96 93 93 97 101 101 100 98 99 101 101 97 91 88 87 87 85 81 77 73 70 65 58 50 41 36 35 36 36 36 36 36 36 36 36 36 38 40 42 46 49 51 54 57 59
98 101 102 102 102 103 105 106 106 104 102 101 100 100 100 100 100 101 101 101 101 100 100 100 100 100 100 100 100 100 100 100 100 100 100 100 100 100 101 102 102 100 99 100 102 103 102 101 102 104 105 101 95 91 89 87 84 80 75 70 64 56 48 42 38 36 36 36 36 36 36 36 36 37 37 39 42 45 48 51 53 55 58 62 65
Wind_Speed
27 27 26 26 26 26 28 28 28 29 27 24 23 24 24 25 27 29 31 32 30 27 25 25 25 25 24 23 23 24 25 25 23 23 24 25 27 29 30 32 34 35 36 38 40 42 44 47 49 50 50 51 51 52 54 51 46 43 42 41 40 41 41 40 42 40 35 32 31 31 32 33 32 31 30 29 29 28 28 28 27 27 28 28 29
27 28 27 26 25 25 27 28 29 30 29 26 26 27 25 24 24 26 28 30 32 31 28 26 25 25 25 25 23 23 24 25 24 23 23 24 25 27 29 31 33 34 35 37 38 40 42 44 46 47 48 49 50 50 52 54 53 51 48 45 43 41 40 40 41 40 37 34 31 29 29 31 32 31 31 31 31 30 30 31 30 29 29 29 29
26 27 27 26 25 24 25 27 28 30 29 27 28 30 29 26 24 25 27 28 30 31 30 28 27 26 26 25 25 24 23 24 25 24 23 24 25 26 28 30 31 32 34 35 36 37 39 42 44 45 46 48 49 50 51 54 56 57 56 53 50 47 44 42 41 40 38 36 33 31 30 30 30 30 31 32 32 31 32 32 30 30 30 30 30
26 26 26 26 25 25 26 26 28 28 28 28 30 31 31 28 26 26 26 27 28 30 31 30 28 27 27 26 26 25 24 24 24 25 25 25 25 26 27 28 30 32 32 33 33 34 36 39 40 41 42 44 45 46 47 49 52 55 56 56 55 53 50 47 45 43 40 37 35 34 32 31 30 30 29 30 30 30 31 31 30 30 30 30 30
28 27 27 26 25 25 26 26 27 27 27 29 31 32 31 29 29 28 28 28 28 29 30 31 30 28 27 28 27 26 26 25 24 25 25 25 26 27 28 28 29 31 32 32 32 32 33 34 36 37 38 40 40 40 41 43 45 46 49 51 53 54 53 51 50 47 44 41 38 36 34 33 32 31 29 30 30 30 30 31 31 30 30 30 30
28 28 27 27 26 26 26 26 26 27 28 30 32 33 32 31 31 31 31 31 30 29 29 30 31 30 28 28 28 28 27 26 25 25 25 25 26 27 28 29 29 30 31 32 31 31 31 32 32 33 35 37 37 37 37 38 39 40 41 43 46 48 49 48 48 47 46 45 42 38 36 35 34 33 32 32 32 32 32 32 32 32 32 32 32
29 27 27 27 27 27 27 26 26 27 28 30 32 33 33 33 34 34 34 34 33 31 30 30 31 31 30 28 28 28 28 27 26 25 25 25 26 26 27 29 30 31 32 32 32 32 32 32 31 32 33 33 33 33 34 34 35 36 36 37 38 40 41 42 42 42 43 43 42 39 37 36 35 35 34 33 32 32 33 33 34 35 35 35 35
29 28 28 28 28 28 27 26 26 27 28 30 32 33 34 36 36 36 36 37 36 35 33 32 31 31 31 29 28 28 28 28 27 26 25 24 25 25 25 27 29 31 32 33 33 33 33 33 33 32 32 32 32 32 32 32 33 34 34 35 35 36 38 39 39 40 41 41 41 40 38 37 36 35 34 33 33 34 33 33 35 36 36 36 36
29 30 30 29 29 29 27 25 26 27 28 30 31 33 35 36 36 37 38 38 38 38 37 34 32 32 31 30 29 28 27 27 27 25 24 23 23 25 25 26 27 29 30 31 31 32 33 34 35 35 34 33 33 33 33 33 34 35 36 36 37 38 39 40 40 41 42 41 41 40 38 38 38 37 36 36 37 37 36 34 35 36 35 35 36
30 32 31 29 28 29 28 27 27 28 29 30 32 33 34 35 35 36 37 38 40 41 40 36 34 33 31 31 30 29 27 27 26 25 22 19 20 24 26 26 26 27 28 29 29 30 31 32 33 35 35 35 35 34 34 34 34 34 35 36 37 38 39 39 40 41 41 41 41 40 40 40 41 40 40 40 39 38 37 36 36 35 34 35 36
33 33 31 29 28 29 29 28 29 29 30 30 31 33 34 35 36 36 37 38 40 42 41 38 35 34 32 31 30 29 28 26 25 25 21 15 17 23 24 24 24 25 26 28 28 27 28 28 29 31 32 33 34 34 34 33 33 32 33 33 34 35 36 37 38 38 39 39 39 39 40 41 42 42 42 41 40 39 39 38 37 37 36 37 37
34 33 33 30 28 29 30 30 31 31 30 30 31 33 34 36 37 38 38 38 40 42 41 39 37 35 33 32 30 29 29 27 24 24 21 14 15 21 20 20 22 23 24 25 27 27 27 26 27 27 28 29 30 31 31 31 31 31 31 31 31 32 33 33 34 35 36 37 38 38 39 39 40 40 40 40 40 41 40 40 39 39 39 39 39
34 35 35 32 29 30 31 32 32 32 31 31 32 33 35 36 37 38 38 39 41 42 40 38 37 36 34 33 31 28 29 27 23 22 21 15 15 21 18 15 16 18 20 21 23 26 27 27 26 26 27 27 28 29 29 29 29 29 29 29 29 30 30 31 31 32 32 32 34 35 36 36 37 37 37 36 37 38 39 40 40 40 39 39 39
34 35 34 31 28 30 32 33 33 34 34 33 33 34 35 36 37 38 38 39 41 42 40 38 38 36 34 34 32 28 28 27 23 21 20 15 15 21 22 18 14 13 15 16 18 20 23 24 25 25 25 26 27 28 28 28 28 28 28 28 28 28 28 28 28 29 29 29 30 31 31 32 32 32 31 31 32 33 34 36 37 38 38 37 36
33 33 31 28 28 30 31 32 34 35 36 36 36 36 37 38 39 39 39 39 41 41 40 39 38 36 34 33 32 28 27 26 22 20 18 14 14 20 24 24 20 16 14 14 14 15 17 19 20 21 22 23 24 24 25 25 25 25 25 26 26 25 25 26 26 26 27 28 28 28 27 27 27 27 27 27 27 28 29 29 30 31 33 33 33
31 31 29 28 29 30 32 33 35 36 37 38 38 39 40 40 40 38 37 38 41 41 41 40 38 36 34 33 31 28 25 24 22 20 16 12 14 19 22 23 23 21 18 17 15 14 15 15 15 16 17 17 18 19 19 20 21 22 23 23 22 22 22 22 22 23 24 25 25 25 25 25 25 25 25 24 25 25 24 25 25 26 28 30 31
31 30 30 29 30 32 33 34 35 36 37 39 41 41 41 40 38 36 35 38 42 43 42 40 38 35 34 31 28 25 23 22 21 20 18 13 11 16 20 21 19 18 18 17 17 16 16 15 14 14 14 14 15 15 15 16 17 19 21 22 22 21 20 19 19 19 19 19 20 21 21 22 22 23 23 24 24 24 24 25 26 27 28 30 30
31 30 30 31 32 34 36 36 37 38 40 42 41 40 39 37 35 34 35 39 43 44 41 39 37 33 31 28 24 21 21 21 20 20 20 17 11 12 16 19 17 16 14 13 14 15 14 14 14 14 14 14 13 14 15 16 16 17 18 19 21 22 22 21 20 18 16 15 16 17 17 18 19 20 21 22 23 24 25 27 27 27 29 30 30
30 30 32 34 35 37 39 39 39 41 41 38 34 32 31 32 33 35 38 42 44 43 38 35 34 31 28 27 24 22 21 22 22 21 20 19 15 10 12 16 16 15 13 11 12 13 13 13 14 13 13 12 12 13 15 16 16 16 17 18 19 21 21 22 22 21 20 19 19 17 16 16 16 17 18 18 19 21 22 23 24 26 28 29 28
30 34 37 38 38 40 40 40 40 38 33 28 26 27 29 32 35 38 41 43 43 38 33 31 30 28 26 25 24 22 22 24 24 23 21 19 17 12 11 15 16 15 14 12 12 12 13 14 14 13 12 12 13 13 14 15 16 16 16 17 18 18 19 20 21 21 22 23 22 21 20 19 19 18 18 18 18 20 20 19 20 22 23 24 25
36 40 40 39 38 37 36 35 34 31 27 26 29 32 34 36 38 40 41 41 37 32 29 28 28 27 24 23 22 21 21 23 24 23 20 18 18 15 14 16 16 14 14 13 12 13 13 13 13 13 13 13 13 13 13 14 15 15 14 14 15 16 17 17 17 18 19 20 21 22 22 22 21 21 20 19 19 21 21 20 19 19 18 18 19
40 39 37 34 31 31 31 30 30 30 32 35 38 38 38 38 37 37 36 34 30 28 27 26 25 24 22 20 18 18 17 19 20 19 17 16 16 15 15 17 16 14 15 15 14 13 13 12 12 13 14 14 14 14 14 13 13 12 12 12 12 14 16 16 15 15 16 17 18 20 22 23 23 22 22 21 21 21 22 22 20 19 19 19 19
36 33 32 31 31 33 34 33 33 34 36 38 39 38 37 35 32 31 30 28 26 25 24 23 22 22 20 17 13 12 13 14 15 14 13 13 13 12 12 13 13 13 15 16 15 14 13 12 12 12 11 11 12 14 14 13 13 12 12 13 14 15 16 16 16 16 16 16 17 18 19 21 22 22 23 23 23 23 23 23 21 20 20 21 21
31 32 33 35 37 37 35 33 33 34 34 34 34 32 30 28 28 27 25 24 24 23 22 20 19 18 18 15 11 9 9 10 10 10 10 10 10 10 9 9 9 12 14 15 15 14 13 13 12 8 7 9 11 13 15 16 16 15 15 15 15 15 15 15 15 15 15 16 16 17 17 18 19 20 21 22 23 23 23 23 21 20 20 20 21
33 35 37 38 38 36 35 34 34 33 32 30 27 26 25 27 27 25 22 21 21 21 20 19 17 16 15 13 11 10 10 9 9 9 9 8 8 6 7 10 13 13 12 13 14 13 12 12 12 11 13 14 14 14 14 14 15 16 16 15 14 14 14 14 14 14 14 15 15 16 16 16 17 18 18 19 20 21 21 22 21 21 20 20 20
37 38 38 38 36 35 35 34 32 30 29 26 23 23 26 28 27 22 20 20 20 19 18 16 15 15 14 12 10 10 9 9 9 9 8 8 10 10 11 15 16 13 10 11 14 13 12 13 13 13 14 14 13 12 12 11 12 15 16 16 16 16 16 16 16 15 15 14 14 15 15 15 16 16 16 16 17 18 18 19 20 20 20 20 19
37 38 37 36 35 34 32 29 27 28 28 25 23 25 27 27 24 21 19 20 20 19 17 15 13 13 12 10 9 8 8 8 8 7 5 8 13 14 14 14 14 12 10 11 12 13 13 13 12 11 11 11 11 11 11 11 12 13 13 15 16 17 17 17 18 18 17 17 16 16 16 16 16 16 16 16 16 17 18 18 19 19 20 20 19
36 36 35 33 32 32 29 25 25 28 29 26 25 26 26 23 21 20 19 19 18 18 17 15 12 10 8 8 7 6 7 8 8 6 4 6 10 12 11 10 10 10 11 11 11 12 12 12 11 11 11 10 10 11 11 11 11 11 12 13 14 15 15 15 16 16 17 17 18 18 18 18 18 18 18 18 18 19 19 19 19 20 20 20 20
35 34 33 31 30 29 27 24 25 27 27 24 22 22 21 19 19 19 19 16 15 16 16 13 10 8 8 7 6 5 7 7 6 5 4 3 5 6 5 5 6 7 8 9 10 10 10 10 10 11 10 10 10 10 11 11 11 11 12 12 12 13 13 13 13 14 15 16 16 17 18 18 19 19 19 20 20 21 21 21 20 20 20 20 20
35 34 33 31 29 27 26 24 24 24 22 20 19 19 18 16 16 18 18 15 11 12 12 9 7 7 8 8 7 7 7 6 4 4 4 3 4 3 2 3 5 5 6 7 8 8 8 8 8 9 10 10 10 10 11 11 11 11 12 12 12 12 11 12 13 13 14 15 16 16 17 17 17 18 19 20 20 21 21 21 21 21 20 20 21
36 35 34 31 27 25 24 23 22 20 19 19 20 21 20 19 16 14 14 13 9 8 9 9 8 9 11 11 11 10 10 9 8 9 8 6 6 6 7 7 7 6 7 9 10 9 8 7 7 8 9 9 10 11 11 12 11 11 11 11 10 10 10 11 11 12 13 14 15 16 17 18 18 19 20 20 21 21 22 22 22 22 22 21 21
37 36 35 31 26 23 22 21 20 20 21 21 22 22 23 23 20 14 9 9 9 7 7 8 9 9 9 8 8 9 12 13 13 12 11 11 12 11 11 11 9 8 9 11 11 10 9 8 8 8 8 8 8 9 10 11 11 11 10 10 9 9 10 10 10 11 11 12 13 15 16 17 19 20 20 21 22 22 22 23 22 22 22 21 21
36 35 32 28 25 22 21 20 21 22 22 23 23 23 23 24 24 19 11 8 9 9 8 8 10 11 9 7 6 6 8 10 12 12 12 13 14 13 12 13 12 11 12 11 10 9 8 7 7 8 8 7 7 7 8 9 10 10 10 9 10 10 11 11 11 11 11 12 13 14 15 16 17 18 19 20 21 22 22 22 22 22 22 21 21
34 31 29 26 23 21 20 20 21 23 23 23 23 24 23 22 23 22 18 12 9 9 9 11 14 16 15 14 13 12 11 11 13 14 13 12 12 11 9 10 12 13 12 10 9 8 8 8 8 9 9 9 9 9 9 9 10 11 11 11 12 13 13 13 12 12 12 12 13 14 15 16 17 17 18 19 19 20 20 20 21 21 20 20 20
31 29 26 23 22 21 20 20 21 23 24 25 24 24 23 22 21 21 20 17 13 11 9 10 14 16 16 17 18 19 19 19 19 19 16 14 14 13 11 11 13 12 10 9 9 9 9 9 10 10 11 12 12 12 12 12 12 13 13 13 13 14 14 14 14 14 14 14 14 14 15 16 16 16 17 17 18 18 18 19 19 19 19 19 19
31 29 25 23 23 23 22 21 21 23 25 26 26 24 22 21 21 20 19 17 16 14 11 10 11 13 14 15 16 17 18 18 18 18 16 15 15 14 13 13 13 11 10 10 10 9 9 10 10 11 12 12 13 13 14 14 14 14 14 14 14 14 15 16 16 16 16 15 16 16 16 17 17 17 17 17 18 18 18 19 19 19 18 18 18
31 28 25 24 24 24 24 22 22 23 24 25 26 24 21 20 19 19 18 16 15 15 13 11 11 12 12 12 13 14 15 15 15 14 14 14 14 12 10 11 12 11 11 10 10 10 10 10 11 11 12 12 13 14 14 14 15 15 15 15 15 15 15 16 16 16 16 16 16 16 16 16 17 17 17 17 17 18 18 17 17 17 16 16 16
30 26 25 25 25 25 25 24 23 23 24 23 23 21 21 19 18 17 17 16 15 14 13 12 11 12 11 10 11 12 12 12 12 12 13 14 12 10 10 11 11 11 11 10 10 10 10 10 10 11 11 12 12 13 14 14 15 15 15 15 16 16 16 16 16 15 15 14 14 14 14 14 15 15 15 15 15 15 15 15 14 14 14 14 14
29 26 26 26 26 26 26 26 25 24 22 22 21 20 19 19 18 17 16 15 15 14 13 13 12 11 10 10 11 11 11 11 11 11 11 12 11 9 10 10 10 10 10 10 9 9 9 9 9 9 10 11 11 12 13 14 15 15 15 15 15 16 16 16 15 14 14 13 13 13 12 12 12 12 13 13 13 13 14 13 13 13 13 13 13
29 28 28 28 28 28 29 28 27 24 21 20 19 18 18 18 17 17 16 15 15 14 13 13 12 11 10 11 11 11 10 11 11 11 11 10 10 9 9 9 9 10 10 9 9 8 8 8 9 9 10 10 11 11 12 13 14 14 14 14 15 15 15 15 15 14 14 13 13 12 11 11 11 11 11 12 12 12 12 12 12 12 12 12 12
27 28 30 30 31 32 32 31 27 23 20 18 18 18 19 18 17 17 16 16 16 15 14 14 12 10 10 11 11 11 11 10 11 11 11 10 9 9 9 9 9 9 9 9 9 8 8 8 9 9 9 10 10 11 12 12 13 13 13 14 14 15 15 15 15 14 14 13 12 11 11 11 11 11 11 11 11 11 11 11 11 11 11 11 11
27 29 31 33 34 35 35 31 25 20 18 17 17 19 19 18 17 17 16 16 16 15 15 14 12 11 11 11 12 12 12 11 11 11 11 10 9 9 9 9 9 9 9 9 8 8 8 9 9 9 9 10 10 10 11 11 12 12 13 13 13 14 14 14 14 13 13 12 11 10 10 10 11 11 11 11 10 10 10 10 10 10 10 10 10
29 31 32 34 36 36 33 28 21 17 16 16 17 18 19 18 17 17 16 16 16 16 15 14 13 11 11 12 12 13 12 11 11 11 11 11 10 9 9 9 10 9 9 9 9 9 9 9 9 9 9 9 9 10 10 11 12 12 12 12 12 12 12 12 11 11 11 11 10 9 9 10 11 11 10 10 10 10 10 10 10 10 10 9 9
31 32 34 35 35 32 27 20 16 15 16 17 18 19 18 18 17 16 16 16 16 15 15 14 13 12 12 12 13 13 13 11 10 11 11 11 11 10 10 10 10 10 9 9 9 9 9 9 9 9 9 9 9 10 10 11 11 11 11 11 11 10 10 9 9 9 9 10 10 10 10 11 11 11 10 10 10 10 10 10 10 10 9 9 8
33 34 35 33 30 26 20 16 15 16 18 19 20 19 18 18 17 16 15 15 15 14 13 12 12 12 11 12 13 14 13 11 11 11 11 12 11 11 11 11 11 11 10 10 9 9 9 9 9 9 9 9 9 9 9 10 10 10 10 10 9 8 7 7 8 8 9 9 10 10 11 11 11 11 10 10 10 10 10 9 9 9 8 7 7
34 35 32 29 25 20 17 16 18 20 21 21 21 20 19 17 16 15 14 14 14 14 13 12 11 11 11 11 12 13 12 12 11 11 11 11 12 11 11 12 12 11 11 10 9 9 9 9 9 9 8 9 9 9 9 9 9 9 9 9 9 8 8 8 9 9 9 10 11 11 11 11 11 11 11 10 10 10 9 8 8 8 7 6 5
35 32 28 23 19 17 17 19 21 22 22 21 20 19 18 17 16 15 15 14 13 13 13 13 12 12 11 11 12 12 12 11 11 11 11 12 12 11 11 12 12 11 11 10 10 9 9 9 9 8 8 9 9 9 9 9 9 9 9 9 9 9 9 10 10 11 11 12 11 11 11 11 11 11 11 10 10 10 9 8 8 7 6 5 4
32 27 22 19 17 18 20 21 22 21 20 19 17 17 17 16 15 15 15 14 14 13 13 13 12 12 11 11 12 12 12 11 11 11 11 12 12 11 11 12 12 12 12 11 10 10 10 9 9 8 8 9 9 9 9 8 9 9 9 9 9 10 10 11 11 12 12 12 11 11 11 11 11 10 10 10 10 9 9 9 8 7 5 4 3
28 23 19 18 18 20 21 22 20 19 17 17 17 17 17 16 15 15 14 14 14 13 13 12 11 11 11 11 11 11 11 11 11 11 11 11 11 11 11 12 12 13 12 11 11 11 10 9 9 8 8 9 9 9 9 9 8 9 9 9 9 10 11 11 11 11 11 11 12 12 12 11 11 11 11 11 10 9 9 8 6 5 4 3 4
23 19 18 18 20 22 22 21 19 17 17 16 17 16 16 15 14 14 13 13 13 13 12 12 11 11 10 10 10 11 11 11 11 10 10 10 11 11 11 12 12 12 12 11 11 11 11 10 9 8 8 8 8 9 9 9 9 9 10 10 10 11 11 11 11 11 11 11 11 12 12 12 12 11 11 11 10 9 8 6 5 4 4 4 5
20 18 18 19 22 23 22 20 18 18 17 16 15 15 15 16 16 15 14 14 13 13 12 12 12 12 11 11 10 10 11 11 10 10 10 10 10 11 11 11 12 12 12 12 12 12 11 10 9 8 8 8 8 9 10 10 10 10 11 11 11 11 11 12 12 11 11 11 12 12 12 12 12 11 10 10 9 8 6 5 5 5 5 5 6
Wind_Direction
329 328 327 326 325 325 325 325 327 331 333 334 336 339 337 335 333 329 326 325 323 318 310 305 301 299 296 293 289 284 280 278 277 273 268 265 263 261 259 260 260 258 258 256 253 249 247 245 244 243 242 242 241 239 235 229 223 221 223 226 230 232 231 231 235 240 241 242 242 241 241 240 239 240 241 242 242 241 241 241 239 238 238 237 236
325 325 323 322 322 322 321 321 323 326 328 328 330 332 334 335 334 330 327 324 323 322 317 310 305 301 297 294 291 286 281 277 275 273 270 268 268 267 262 259 258 258 258 257 255 252 249 247 246 244 242 240 241 239 236 231 225 222 224 225 226 227 229 230 233 236 238 239 238 235 233 232 233 235 237 241 244 243 242 241 239 237 238 238 237
320 321 320 319 320 321 319 319 320 322 324 325 324 327 330 331 332 331 329 326 322 320 319 315 309 304 300 297 292 288 284 277 271 269 268 266 266 268 267 263 258 256 257 256 255 253 251 248 247 245 243 241 240 239 237 234 230 229 230 230 228 226 225 227 230 233 234 235 236 234 230 228 231 234 237 242 245 243 243 242 241 240 240 239 239
314 315 316 315 317 319 319 319 318 319 321 319 319 323 325 325 326 328 328 326 323 320 319 316 312 307 303 299 295 290 286 282 273 266 264 264 264 263 265 266 263 258 256 255 255 253 252 249 247 246 243 241 240 238 237 236 234 232 233 232 230 228 226 225 226 229 231 233 233 234 234 233 235 236 236 238 239 239 240 241 240 239 240 240 240
311 312 312 312 313 315 316 317 316 317 317 315 316 320 321 320 321 323 326 326 324 320 317 315 313 309 304 301 299 295 290 286 280 271 264 261 261 261 260 262 263 261 257 254 253 252 250 249 248 246 243 240 239 236 235 234 233 232 232 232 231 230 229 228 227 228 230 232 232 234 236 237 237 238 237 237 236 236 236 237 238 238 239 240 240
309 310 310 310 310 310 312 313 313 314 314 313 315 317 318 317 316 317 321 323 324 321 316 313 312 310 305 301 299 297 294 289 285 280 272 264 260 259 258 257 257 257 255 252 251 250 249 248 247 245 243 241 239 236 234 232 232 231 230 230 230 231 231 231 231 231 232 234 235 236 236 236 236 237 238 239 238 238 236 235 236 237 237 239 240
306 307 309 310 308 306 308 310 310 311 311 312 313 314 315 314 314 315 317 319 322 323 318 312 309 308 305 301 298 297 295 292 288 284 279 273 265 259 257 256 254 253 251 249 247 246 245 246 245 244 243 242 240 238 236 234 233 232 231 230 230 230 231 231 231 231 231 233 234 233 233 235 237 238 239 239 239 239 238 236 235 236 237 239 240
306 306 308 308 305 302 304 307 307 307 307 308 310 311 311 312 313 314 315 316 318 321 321 315 308 304 303 300 297 295 294 293 290 287 285 280 272 264 257 255 254 253 252 249 246 243 241 241 240 240 240 240 240 240 239 237 234 233 232 231 230 229 228 227 227 227 228 229 230 231 232 234 237 237 236 235 234 234 234 235 237 239 240 241 242
304 305 305 304 303 301 300 301 302 302 303 304 306 307 307 308 310 312 313 314 315 317 319 317 309 304 301 299 296 292 291 291 290 289 288 285 281 272 261 253 251 252 252 251 248 244 241 239 238 237 236 236 236 237 237 236 235 233 231 230 228 227 226 226 225 226 227 229 231 232 233 233 234 234 234 234 235 236 236 236 238 239 240 243 244
302 302 302 302 302 299 297 295 296 297 298 299 301 303 303 304 306 308 310 311 311 313 316 316 312 307 303 300 296 291 288 288 288 288 285 287 295 287 269 256 250 248 251 251 249 246 242 239 238 236 235 235 234 234 234 234 233 233 232 231 229 228 227 226 227 227 228 230 232 233 233 234 234 234 235 237 238 239 239 238 239 240 239 239 241
302 302 301 302 300 297 293 292 293 294 295 296 298 300 301 302 302 304 306 307 309 312 313 312 311 308 304 301 296 290 286 284 285 285 279 281 303 296 278 264 255 247 246 248 247 246 243 240 239 236 234 234 232 232 232 232 230 229 229 230 229 229 228 228 228 228 228 230 232 233 235 237 237 236 237 238 237 238 239 239 240 240 239 238 239
302 301 302 302 299 293 291 290 291 293 294 296 297 298 298 299 299 300 301 303 307 310 310 309 309 307 304 302 296 289 285 281 281 283 274 268 296 296 279 267 262 252 245 243 241 241 240 238 238 236 234 233 231 229 229 229 228 227 226 226 226 226 227 228 229 230 231 232 234 235 238 240 241 241 240 239 238 238 240 240 240 241 242 242 243
302 302 302 301 296 292 291 290 291 293 295 295 295 296 297 297 297 297 296 299 304 308 308 307 308 306 304 303 298 290 283 278 277 278 267 260 287 290 270 257 260 255 249 245 237 235 236 236 235 234 233 232 231 230 230 230 229 229 228 227 227 227 227 228 230 232 234 236 237 240 242 243 244 245 245 243 240 239 239 240 241 242 243 244 245
303 302 301 301 296 293 292 292 292 295 298 298 297 296 297 296 295 294 294 296 302 306 308 307 307 305 303 302 300 292 281 276 276 274 263 259 283 284 266 252 251 248 247 246 240 234 232 231 232 230 229 228 227 227 228 228 229 229 228 228 228 228 229 229 230 232 233 235 237 240 242 244 246 248 248 246 244 243 242 242 242 242 243 246 247
303 303 305 303 296 293 294 294 297 300 301 301 299 298 297 296 294 293 292 294 301 306 308 307 306 304 302 301 300 293 281 274 274 269 258 260 280 277 264 257 255 251 245 240 239 236 230 228 229 228 227 226 224 223 223 223 223 224 224 226 227 228 229 229 230 231 232 234 236 238 239 241 243 245 245 244 243 243 243 243 244 245 245 246 246
306 309 310 306 299 297 297 297 299 301 301 300 298 298 298 296 292 291 291 296 302 307 307 306 306 303 300 300 299 293 281 274 272 263 248 252 275 272 265 264 261 255 250 242 236 237 235 232 230 228 227 226 222 221 220 218 217 217 217 220 224 226 228 229 229 230 232 234 235 236 238 239 240 241 241 240 240 239 239 238 237 238 239 241 242
309 312 311 308 304 301 300 300 299 298 298 299 298 298 296 292 289 291 296 300 305 307 306 304 303 301 299 297 295 289 280 273 271 263 243 235 264 271 266 270 270 260 253 246 239 238 236 232 231 229 227 226 223 220 218 216 215 214 213 214 216 220 224 225 226 227 231 236 238 238 238 238 238 240 240 239 238 237 235 234 232 231 232 235 238
313 315 313 310 305 302 301 298 296 296 298 300 298 293 289 286 287 294 300 304 306 306 304 302 301 299 297 294 289 282 279 276 274 268 248 232 247 271 264 265 271 266 255 243 236 236 234 228 228 229 227 226 222 220 220 220 218 217 216 214 214 216 218 220 220 219 218 224 231 235 237 238 237 238 239 239 239 236 234 235 235 234 234 235 238
315 314 312 309 305 302 300 297 298 301 302 298 291 284 283 288 294 299 303 305 306 304 301 300 299 297 293 289 283 275 274 275 274 274 262 239 235 259 261 253 259 264 259 243 229 226 226 224 224 223 224 221 216 218 223 223 221 218 217 217 216 217 219 219 219 217 210 209 214 218 223 228 229 229 230 230 233 236 238 237 237 237 238 239 240
312 311 309 307 304 301 300 300 303 303 297 288 284 288 294 299 302 304 305 305 304 301 299 298 298 296 291 287 282 272 267 269 269 273 271 249 231 239 252 247 247 253 253 244 229 219 216 216 215 213 214 214 210 212 218 222 222 218 216 216 217 218 219 220 219 217 213 212 216 218 218 220 220 221 223 222 222 228 234 235 234 236 238 239 240
309 310 310 308 306 303 301 303 303 297 289 290 296 300 303 305 306 306 304 303 301 298 298 298 296 295 292 288 286 277 266 264 265 268 271 256 237 233 241 242 239 241 242 239 231 222 216 212 210 209 209 209 206 205 208 216 222 221 218 217 215 214 216 218 217 215 213 214 217 219 218 219 218 218 221 223 221 223 229 232 233 235 236 238 241
311 312 313 311 309 308 307 306 303 297 296 301 304 304 306 307 306 304 302 300 299 297 297 297 294 294 293 288 287 285 273 265 263 265 266 258 243 235 240 246 243 235 232 231 227 224 224 219 210 208 208 207 203 200 201 206 215 220 220 215 209 207 209 211 211 211 211 211 214 215 216 217 219 218 219 220 220 220 223 226 228 231 235 239 243
315 315 314 312 311 312 312 310 306 302 301 303 304 305 306 306 304 303 301 301 300 297 296 296 295 294 294 289 286 288 279 267 263 265 264 256 243 233 236 247 248 234 228 228 225 223 223 220 216 214 212 210 206 204 205 204 203 206 211 211 207 206 208 210 210 210 209 209 211 215 216 217 219 220 220 221 220 220 221 222 223 225 229 233 237
317 315 313 313 313 313 312 310 308 306 306 306 305 305 306 308 307 305 303 302 301 298 297 296 294 294 295 292 286 290 287 270 264 274 270 248 229 226 226 226 229 230 228 222 219 218 218 221 224 209 175 167 176 189 204 211 208 206 209 212 213 214 215 217 218 218 218 217 217 218 220 221 223 224 224 226 226 226 226 226 225 226 227 229 230
315 315 314 314 313 313 312 310 309 310 311 310 309 309 311 314 312 307 304 304 303 301 299 296 293 293 294 292 287 289 289 279 278 286 272 230 198 198 206 200 207 223 227 215 211 211 208 214 216 194 175 174 178 188 204 210 206 201 200 202 205 208 209 210 212 215 219 222 224 226 226 228 229 228 229 230 231 232 232 231 231 231 231 229 228
316 317 316 316 315 315 313 312 312 313 314 314 313 311 311 314 314 309 307 307 305 303 300 296 291 289 289 288 287 286 281 278 286 288 259 206 176 175 195 203 208 220 225 211 207 205 200 207 214 206 199 199 198 204 212 208 198 197 197 195 196 197 199 200 200 202 205 208 212 217 220 223 227 229 231 233 235 236 236 236 235 234 234 234 234
320 320 320 319 319 318 318 317 316 314 314 315 313 308 309 312 312 310 309 307 304 301 299 293 288 289 290 286 281 276 270 274 283 279 238 197 186 192 207 215 219 225 224 213 211 213 213 218 224 224 220 216 211 213 217 213 208 207 206 204 203 203 205 207 206 207 208 207 206 207 207 210 214 218 223 228 232 235 237 238 239 240 242 244 244
322 322 323 323 322 322 321 319 315 312 312 313 309 306 308 311 310 308 307 305 299 295 293 287 280 279 286 289 283 268 257 261 261 247 225 207 203 209 220 227 226 225 223 218 216 219 224 227 228 228 227 223 219 219 220 218 217 217 216 216 215 214 215 216 215 215 216 217 217 216 216 216 217 219 222 226 228 231 234 238 241 244 246 248 250
322 323 326 326 325 326 324 318 313 312 313 313 310 308 310 311 311 310 307 303 296 290 288 288 280 267 261 268 273 256 243 251 253 246 255 254 232 233 249 253 238 222 217 222 224 223 226 228 226 226 226 222 219 219 220 220 218 218 220 221 221 223 224 224 224 222 222 222 223 224 225 226 227 228 230 231 233 235 238 241 244 246 247 249 251
325 326 329 328 327 327 325 321 318 317 318 319 317 316 317 316 318 316 310 303 298 291 287 288 290 283 266 257 260 258 255 257 239 210 214 231 233 225 218 232 226 193 182 209 230 231 229 229 225 222 221 219 217 215 217 219 218 218 221 223 224 226 227 228 229 227 225 226 227 228 230 231 231 232 234 235 238 240 242 244 246 248 249 251 253
327 327 328 327 326 325 323 322 322 321 322 322 321 322 324 324 326 323 308 296 298 301 288 275 276 284 279 272 270 264 257 252 232 209 206 220 230 215 201 209 217 201 198 220 237 245 250 244 228 215 210 212 211 208 209 214 218 222 227 230 231 232 230 230 231 230 227 226 226 227 230 231 232 234 236 238 240 243 244 247 248 250 252 254 255
324 324 325 324 322 321 319 318 319 318 319 321 322 324 325 324 326 328 308 281 277 280 274 269 275 279 276 274 271 257 251 255 252 238 232 239 244 239 234 237 238 233 235 242 245 250 254 241 217 208 205 204 204 202 204 210 217 225 233 238 241 243 240 236 236 235 234 233 230 229 230 231 232 233 235 237 241 243 246 249 251 254 256 257 257
322 322 323 322 320 318 315 314 315 316 319 321 322 322 321 318 320 322 314 286 265 257 246 244 254 254 242 229 228 232 243 257 260 250 239 240 249 255 254 251 246 239 239 242 240 241 244 232 213 211 215 216 218 214 212 216 223 231 239 244 247 250 250 249 247 243 239 237 236 235 235 235 235 236 236 238 240 242 245 248 251 253 255 255 256
322 322 322 321 320 317 315 314 315 316 319 321 322 320 317 314 314 315 313 306 286 265 247 235 237 241 239 235 234 237 244 252 259 262 258 256 264 267 257 245 245 245 244 243 237 233 235 232 224 222 225 233 240 241 239 237 238 240 244 248 251 254 255 255 253 250 245 241 238 237 238 238 238 238 238 239 241 242 244 246 247 249 251 253 254
324 325 323 322 322 318 315 314 314 314 316 318 320 319 317 313 312 310 308 305 298 288 271 251 246 248 249 246 246 249 253 255 260 267 270 271 270 265 248 240 247 254 252 245 237 231 230 231 231 230 231 237 243 248 251 252 251 250 250 251 252 255 256 256 254 252 250 248 246 245 243 242 242 241 241 241 242 242 243 245 247 248 250 253 255
324 325 323 324 325 322 316 313 311 311 311 313 315 317 315 312 310 307 302 298 295 291 284 271 262 259 258 256 254 254 255 257 259 263 265 263 261 258 250 246 250 253 250 245 242 240 239 240 239 237 238 242 246 250 253 255 255 256 255 253 253 254 254 254 254 253 252 252 251 251 250 249 247 246 244 244 244 244 245 246 248 249 251 252 254
321 320 319 321 323 322 318 312 308 306 305 306 309 313 313 311 310 306 300 295 290 288 286 281 274 270 268 266 262 259 259 259 257 254 250 249 253 255 251 246 245 246 246 246 247 246 244 244 244 244 246 249 252 254 255 256 256 257 257 257 257 255 253 253 253 253 253 253 252 251 250 249 248 247 245 245 246 246 247 248 248 249 251 251 252
318 314 314 316 318 319 319 315 311 307 303 303 307 311 311 311 310 308 303 296 289 285 285 283 281 279 277 272 267 265 264 262 258 252 247 249 255 255 246 241 243 246 248 248 246 244 243 243 245 248 252 255 257 259 260 260 260 260 260 260 259 257 255 253 252 251 252 252 249 246 243 242 243 243 241 241 242 244 246 248 248 249 250 250 251
315 311 313 315 316 318 318 317 316 312 306 305 306 308 308 309 309 308 305 299 292 287 285 284 284 284 284 279 274 271 269 266 261 256 252 253 256 253 247 247 249 249 249 249 247 245 246 247 248 250 253 256 259 261 262 262 261 261 260 259 258 257 255 254 253 251 250 249 247 245 242 239 240 240 239 238 239 239 241 243 244 245 245 245 245
313 313 315 317 317 317 316 316 315 312 307 305 305 306 308 309 308 307 304 299 294 290 286 284 283 283 283 281 278 274 272 268 264 261 258 257 257 254 252 252 250 248 250 252 252 251 251 251 252 252 253 255 257 258 258 258 257 256 256 254 254 253 253 253 253 252 250 248 247 247 245 243 241 239 237 236 235 234 234 235 235 236 238 240 242
315 315 315 316 317 318 317 315 311 306 304 305 306 308 308 307 305 303 301 298 296 293 287 284 283 284 284 283 280 278 274 268 265 264 261 258 255 252 250 248 245 245 248 251 254 256 256 254 254 255 255 256 257 257 257 257 255 254 252 250 248 248 248 248 249 250 251 250 249 247 245 241 236 232 231 230 231 232 232 232 231 232 235 241 245
317 315 315 316 316 317 318 316 310 301 298 302 305 306 306 304 303 301 298 295 295 292 288 284 282 281 280 278 278 278 276 270 267 265 262 258 254 249 244 243 242 241 243 247 252 257 258 259 260 259 259 261 261 260 260 260 258 255 251 247 244 244 245 245 247 248 249 249 246 241 235 230 225 224 224 223 225 228 230 232 234 235 235 239 243
315 313 313 313 314 317 319 317 309 298 297 301 304 304 304 303 301 299 296 294 292 290 287 283 281 279 275 271 270 272 272 270 269 267 264 263 258 249 242 240 240 240 242 245 249 251 253 256 260 262 263 265 265 262 260 256 253 250 248 245 242 241 240 240 241 240 240 240 235 227 222 221 221 222 221 219 220 223 224 227 231 233 233 235 237
313 311 312 313 316 318 318 314 308 306 306 305 302 301 302 302 300 297 295 293 290 288 285 282 279 276 271 265 263 265 265 263 261 260 260 262 260 253 246 240 238 239 242 245 249 252 253 255 259 262 264 266 263 259 256 253 250 249 247 246 245 242 237 234 231 226 226 227 223 217 216 219 221 221 221 219 219 222 221 221 222 225 226 226 225
312 313 315 317 318 318 318 317 317 313 308 302 299 299 300 301 300 298 296 294 290 286 283 279 277 275 270 264 262 263 263 260 254 251 252 255 255 252 248 242 239 239 240 242 246 250 253 257 262 265 267 266 262 258 255 253 252 250 248 246 246 242 233 229 226 220 216 216 215 212 213 216 218 220 220 219 218 219 217 213 212 211 213 213 212
316 318 319 319 318 317 318 318 313 306 301 299 299 298 298 298 298 297 297 296 294 289 284 279 276 272 268 264 262 261 260 259 256 254 253 253 252 250 246 243 242 240 240 242 246 248 252 257 263 266 268 268 264 259 256 251 246 243 241 238 235 229 222 221 221 217 215 216 216 213 214 215 216 216 216 215 215 213 207 203 203 203 203 207 209
320 321 321 318 316 314 313 309 305 303 302 302 300 298 297 297 296 294 292 291 291 289 285 280 277 273 269 265 262 259 256 255 253 253 253 253 252 250 247 244 242 242 241 242 244 247 251 256 260 263 265 265 261 259 254 247 242 239 234 227 223 219 214 213 213 211 212 216 217 217 217 215 213 211 209 207 208 204 195 193 195 195 197 205 212
321 321 320 317 313 311 309 308 308 309 309 308 305 302 298 295 293 292 290 287 286 285 282 278 275 272 269 265 261 258 255 252 249 247 247 248 248 248 246 245 243 242 239 238 240 243 248 252 257 261 263 261 259 258 252 244 239 236 231 224 220 215 211 210 211 209 210 212 213 215 216 213 207 203 199 196 196 195 190 189 191 191 195 209 227
322 321 319 317 315 314 314 314 313 312 313 312 310 307 303 299 295 292 289 286 283 281 280 277 273 269 266 262 259 255 253 252 250 246 243 243 243 243 242 241 242 241 238 236 237 239 242 247 250 254 255 256 257 257 252 244 236 232 226 221 217 214 212 213 212 210 209 209 208 207 207 204 198 194 189 187 188 189 188 188 191 193 204 227 247
322 322 321 319 317 317 318 317 314 312 312 312 311 311 311 308 301 295 291 287 283 279 275 272 269 265 261 258 255 251 248 248 247 245 243 241 240 241 240 239 240 240 238 235 235 236 239 243 246 247 250 252 252 251 249 242 233 226 221 218 215 213 211 212 213 213 212 208 203 199 197 194 191 188 184 182 183 186 188 190 197 206 222 242 257
324 324 323 320 317 317 317 317 315 313 313 313 310 308 307 305 302 300 297 292 286 281 276 269 266 263 259 256 251 246 244 243 242 242 242 241 241 241 241 240 240 239 236 233 233 235 238 242 243 244 247 248 245 243 240 235 227 222 218 216 214 212 209 210 211 211 209 203 197 192 188 186 185 185 183 181 182 187 191 197 209 223 238 256 268